Tracking 28052 objects as of 22-Sep-2023
HD Live streaming from Space Station
objects crossing your sky now

STARLINK-5644

Track STARLINK-5644 now!
10-day predictions
STARLINK-5644 is classified as:


NORAD ID: 55369
Int'l Code: 2023-013AQ
Perigee: 565.2 km
Apogee: 567.2 km
Inclination: 43.0 °
Period: 95.8 minutes
Semi major axis: 6937 km
RCS: Unknown
Launch date: January 26, 2023
Source: United States (US)
Launch site: AIR FORCE EASTERN TEST RANGE (AFETR)
Your satellite tracking list
Your tracking list is empty




NASA's NSSDC Master Catalog

Two Line Element Set (TLE):
1 55369U 23013AQ  23265.00104445 -.00000092  00000-0  82356-5 0  9994
2 55369  43.0032 161.9121 0001426 255.6476 104.4208 15.02543498 36651
Source of the keplerian elements: AFSPC